Regional Weather Roundup
Issued by NWS

Home | Current Version | Previous Version | Graphics & Text | Print | Product List | Glossary Off
Versions: 1 2 3 4 5 6 7 8 9 10 11 12 13 14 15 16 17 18 19 20 21 22 23 24 25 26 27 28 29 30 31 32 33 34 35 36 37 38 39 40 41 42 43 44 45 46 47 48 49 50

000
ASUS43 KTOP 230759
RWRKS

WEATHER ROUNDUP FOR KANSAS
NATIONAL WEATHER SERVICE GOODLAND KS
300 AM CDT MON APR 23 2018

NOTE:  "FAIR" INDICATES FEW OR NO CLOUDS BELOW 12,000 FEET WITH NO
SIGNIFICANT WEATHER AND/OR OBSTRUCTIONS TO VISIBILITY.

KSZ001>006-013>018-027>032-041>047-230900-
NORTHWEST KANSAS

CITY           SKY/WX    TMP DP  RH WIND       PRES   REMARKS
GOODLAND       CLEAR     35  33  92 S3        30.16F
HAYS           CLOUDY    50  43  77 NW8       30.15F
HILL CITY      CLEAR     37  36  96 CALM      30.17F
RUSSELL        CLOUDY    50  45  83 NW7       30.14S
$$

KSZ061>065-074>080-084>089-230900-
SOUTHWEST KANSAS

CITY           SKY/WX    TMP DP  RH WIND       PRES   REMARKS
DODGE CITY     PTCLDY    41  36  82 NW8       30.16S
GARDEN CITY    CLEAR     37  34  89 W5        30.16F
GREAT BEND     CLOUDY    50  44  80 NW6       30.15S
LIBERAL        CLOUDY    37  35  92 NW3       30.17F
$$

KSZ066>073-081>083-090>101-230900-
SOUTHEAST KANSAS

CITY           SKY/WX    TMP DP  RH WIND       PRES   REMARKS
CHANUTE        CLOUDY    55  46  71 N8        30.05F
COFFEYVILLE    CLOUDY    54  49  83 N10       30.03F
HUTCHINSON     CLOUDY    53  43  68 NW6       30.11F
MEDICINE LODGE   N/A     52  45  77 NW6       30.11F
WICHITA INTL   CLOUDY    53  46  77 NW8       30.09F
WICHITA JABRA  CLOUDY    51  46  83 NW6       30.09F
WICHITA MCCONL CLOUDY    53  44  71 N8        30.09S
WINFIELD       PTCLDY    47  47 100 N7        30.08F
$$

KSZ007>012-019>026-033>040-048>060-102>105-230900-
NORTHEAST KANSAS

CITY           SKY/WX    TMP DP  RH WIND       PRES   REMARKS
CONCORDIA      CLEAR     47  39  74 N3        30.13F
EMPORIA        CLOUDY    53  43  68 N5        30.08F
LAWRENCE       CLOUDY    58  34  40 NE7       30.08F
MANHATTAN      PTCLDY    44  40  85 CALM      30.12R
OLATHE IND     CLOUDY    56  34  43 N8        30.08S
OLATHE EXE     CLOUDY    56  31  38 NE10      30.06F
SALINA         CLEAR     45  42  89 NW5       30.13S
TOPEKA BILLARD CLOUDY    50  42  74 NW5       30.10S
TOPEKA FORBES  PTCLDY    49  42  77 N7        30.09F
$$




USA.gov is the U.S. government's official web portal to all federal, state and local government web resources and services.